Track FLOCK 2EP-5 now! 10-day predictions FLOCK 2EP-5 is classified as:
1 41567U 98067JR 18109.41121648 .00089920 00000-0 44673-3 0 9994 2 41567 51.6325 253.3986 0004180 283.9363 76.1174 15.81193483107760